Wind_Speed
15 15 14 15 16 17 17 18 18 18 18 18 19 19 19 20 21 23 23 23 22 21 20 18 17 17 17 17 17 16 15 15 15 15 15 15 15 14 14 14 15 16
17 16 15 15 15 16 16 17 19 19 19 19 20 20 20 20 21 22 22 23 23 23 22 20 19 19 18 18 17 16 16 16 16 15 15 16 15 15 15 15 15 15
16 17 17 16 16 15 15 16 19 20 20 20 20 20 21 21 21 21 21 22 23 23 23 22 21 20 20 19 17 17 17 17 17 16 16 17 16 15 15 15 16 15
16 17 17 17 17 16 16 16 17 19 20 21 21 21 21 21 21 21 21 22 22 23 23 23 22 22 21 20 19 18 18 18 17 17 17 17 17 16 16 15 16 16
17 17 17 17 17 17 16 16 17 18 19 21 21 22 23 23 22 22 22 22 22 22 23 23 23 22 22 22 21 21 20 19 19 18 19 18 18 17 17 16 16 16
16 17 17 16 17 17 17 17 18 18 19 19 21 22 24 24 24 24 23 22 22 22 23 23 23 23 24 24 23 23 23 22 21 21 20 20 19 19 18 18 18 17
15 16 16 16 16 17 18 19 19 19 19 19 19 21 23 24 25 25 24 24 24 23 23 23 23 23 24 24 24 25 25 25 24 23 23 22 22 21 20 19 19 19
13 14 15 15 16 17 18 20 20 21 20 19 19 21 22 23 25 26 25 25 25 25 24 24 24 24 24 25 25 25 26 26 26 25 25 25 24 23 22 22 22 21
10 12 13 14 15 17 18 19 21 21 20 19 19 21 22 23 24 25 26 25 26 26 26 25 25 25 25 25 25 26 27 27 27 27 27 27 26 25 25 25 24 23
8 9 10 11 13 14 16 18 19 20 20 20 20 21 22 23 23 24 25 25 26 27 27 27 26 27 27 27 27 27 27 28 28 28 28 28 28 27 27 27 26 25
6 7 7 8 10 12 14 16 17 18 19 20 20 20 21 22 22 23 24 25 26 27 28 28 28 28 29 29 29 29 28 29 30 30 30 30 29 29 29 29 28 27
5 6 6 7 8 9 11 13 15 16 17 18 19 19 20 21 22 23 25 25 27 28 29 29 29 30 31 31 31 31 30 31 31 31 31 31 31 30 30 30 30 29
5 5 5 6 6 7 9 10 12 14 15 16 17 18 19 20 22 23 25 26 27 28 29 30 30 31 32 32 32 33 33 32 32 32 32 32 32 31 31 31 31 31
6 6 6 6 7 7 8 9 11 12 14 15 16 18 19 20 21 22 24 25 27 28 30 31 32 33 33 32 33 34 34 34 34 34 33 33 33 32 32 32 32 32
7 7 7 7 7 7 8 9 11 13 14 16 17 18 20 21 22 22 24 25 26 28 30 32 33 34 34 34 34 35 35 36 37 36 35 34 34 34 34 33 33 33
7 7 8 8 8 8 9 10 11 13 15 16 17 18 19 20 21 22 24 25 27 29 30 32 33 34 35 35 36 37 38 38 38 37 38 37 36 36 35 34 34 34
6 7 8 8 8 8 9 10 11 13 14 15 16 16 17 18 19 21 23 25 26 28 30 32 34 35 36 38 38 39 41 40 38 39 40 39 38 38 37 36 36 35
7 7 8 8 8 9 9 10 11 12 13 14 14 15 15 16 17 19 21 23 25 27 29 32 34 36 38 39 40 41 42 40 40 42 43 41 40 41 40 38 37 37
9 9 9 9 9 10 11 11 11 12 12 13 14 14 14 15 16 17 19 21 23 25 28 31 34 36 38 39 40 41 41 40 40 43 44 42 41 42 43 41 39 38
9 9 10 11 11 11 11 11 11 12 12 13 13 13 14 14 15 16 17 19 21 23 26 29 32 35 37 38 39 40 41 40 40 42 44 44 43 43 43 44 42 40
8 9 10 11 12 12 12 12 12 12 12 12 13 13 13 14 15 15 16 18 19 21 24 27 30 33 35 36 37 39 41 40 40 42 43 44 45 44 43 42 43 42
9 10 10 11 11 12 13 13 14 14 14 14 14 13 13 13 14 15 16 17 18 20 21 24 28 31 32 33 35 37 39 40 40 41 42 43 44 44 43 41 43 44
10 10 11 12 12 12 13 13 14 15 15 15 15 15 14 13 13 14 15 16 17 18 20 21 25 28 29 31 33 34 35 36 38 39 40 41 41 42 43 43 44 46
11 11 12 13 13 13 13 14 14 15 15 16 16 16 16 15 14 13 13 14 15 17 18 19 21 23 25 27 30 31 31 32 35 37 38 39 40 41 42 44 45 48
13 12 13 14 15 15 15 15 15 15 16 16 16 16 16 15 15 14 13 12 13 14 15 17 18 19 21 23 25 27 29 31 33 35 37 38 40 41 42 43 45 47
15 15 15 15 16 16 16 16 16 16 16 16 16 16 16 15 14 14 13 12 11 12 13 14 15 16 17 19 21 23 26 30 32 34 35 37 41 42 42 42 44 45
Wind_Direction
230 226 222 220 220 222 222 222 222 219 213 212 212 212 213 213 211 209 207 205 206 209 210 209 209 210 211 212 212 210 208 210 212 210 204 201 201 199 196 198 205 208
225 222 221 222 222 223 224 224 224 223 220 218 216 215 214 214 215 215 213 210 209 210 211 210 210 212 213 214 214 214 212 212 215 216 212 208 206 204 201 201 205 208
220 219 220 224 226 226 226 227 227 226 225 224 222 221 219 217 217 217 217 216 214 213 214 213 213 214 215 215 214 216 216 215 215 216 217 216 212 208 207 207 209 210
215 217 218 221 226 228 228 229 231 229 227 226 227 228 228 225 222 221 220 219 218 217 217 215 214 216 219 218 216 216 218 218 216 215 217 220 219 215 212 213 214 212
212 215 219 222 225 229 230 230 231 230 228 228 228 229 231 231 228 226 225 224 222 221 220 218 215 216 220 222 221 219 218 218 217 215 214 217 221 221 217 217 218 216
210 212 218 223 226 229 231 231 230 230 229 229 229 229 231 232 232 229 228 228 227 224 223 223 219 217 219 222 224 224 222 220 217 215 214 214 217 221 220 219 219 219
207 210 215 222 227 229 230 231 231 231 231 231 230 229 229 231 231 230 229 229 230 228 226 226 224 221 219 220 223 226 226 224 220 217 215 214 214 217 220 220 219 220
205 210 217 224 229 231 231 231 232 233 233 233 231 229 230 231 231 231 230 230 232 231 227 227 228 226 223 221 222 225 228 228 225 221 219 217 215 215 218 221 220 220
212 216 221 225 229 232 233 232 234 236 236 235 234 231 231 232 233 233 233 233 233 232 229 228 229 229 228 225 223 224 227 229 228 224 222 220 218 216 217 220 221 221
214 220 224 227 230 233 235 235 235 236 236 235 235 234 233 233 233 234 235 235 235 233 231 230 231 231 232 231 228 226 226 229 229 226 224 223 221 218 218 219 221 222
203 211 219 226 230 234 237 238 237 236 236 236 236 236 236 235 235 235 236 236 236 235 234 234 234 234 234 234 233 231 229 229 231 230 227 225 223 221 219 219 220 222
208 212 217 223 228 233 237 240 240 239 238 240 241 241 240 240 238 237 237 236 236 235 235 236 236 236 235 235 235 235 233 231 231 232 231 229 227 225 222 221 221 222
228 228 230 231 233 237 239 241 244 244 244 245 247 248 248 246 243 240 239 238 237 237 236 236 237 236 236 235 234 235 236 235 234 233 232 232 232 230 226 223 223 224
224 227 230 231 232 235 239 242 245 247 249 249 249 250 251 250 248 245 243 241 241 240 239 238 237 237 238 238 237 235 235 237 237 235 233 233 233 234 232 229 226 225
214 217 222 227 231 234 237 239 242 245 247 249 249 249 250 250 250 249 247 246 244 243 242 240 240 240 239 239 239 238 236 235 235 236 235 233 232 233 234 233 231 228
219 217 218 220 225 230 234 237 238 240 242 245 246 246 247 249 250 250 250 249 247 246 244 244 244 244 243 241 239 238 237 235 234 234 235 234 234 233 234 234 234 232
233 228 224 222 223 227 233 236 237 238 240 242 244 244 244 245 247 249 250 250 250 249 247 247 246 246 246 244 242 240 239 238 236 235 236 237 236 235 234 235 235 235
249 242 235 229 229 230 233 236 238 239 241 242 243 245 245 245 246 248 250 251 251 251 250 250 249 248 246 245 244 243 242 241 239 238 237 237 236 235 234 235 235 236
260 253 246 240 236 235 235 237 239 241 242 244 245 247 249 250 250 250 251 252 251 251 251 252 252 252 250 247 245 246 245 243 242 239 237 236 235 235 236 235 235 235
269 262 256 251 248 246 245 246 247 248 247 247 249 251 254 257 258 257 256 255 253 251 251 252 253 253 252 249 247 246 246 244 242 240 238 236 235 236 237 239 237 236
286 281 273 267 262 261 261 261 260 260 260 258 258 258 260 264 266 266 263 260 257 254 252 252 252 252 251 250 248 246 245 244 242 240 238 237 236 236 238 240 239 236
296 295 292 285 280 277 275 274 273 273 273 272 270 267 266 268 271 275 276 272 266 260 256 254 253 253 251 249 248 247 247 245 243 240 238 237 237 237 237 238 237 234
294 295 295 294 292 288 284 281 280 279 279 279 278 277 276 275 276 280 283 282 277 270 263 258 255 254 251 248 248 249 249 247 244 241 238 237 237 237 237 237 236 235
293 290 289 289 288 286 285 284 284 282 280 280 280 281 282 283 282 282 282 284 283 277 269 263 258 255 252 250 250 250 249 248 246 242 240 239 237 236 236 236 236 236
292 288 285 284 282 280 280 281 283 283 281 279 277 277 280 283 285 285 283 283 285 281 271 265 261 258 253 251 251 252 249 247 246 244 242 240 238 237 237 236 235 236
288 286 284 282 281 280 278 277 277 279 280 279 278 276 277 280 284 287 287 284 284 282 274 265 261 259 256 253 253 253 250 246 246 245 243 242 240 238 237 235 233 235
Height
5887 5889 5890 5892 5893 5895 5896 5898 5899 5899 5900 5900 5901 5902 5903 5904 5904 5905 5906 5907 5909 5910 5911 5913 5914 5915 5916 5917 5918 5919 5919 5920 5921 5922 5923 5923 5924 5925 5925 5926 5926 5927
5885 5887 5888 5889 5891 5892 5894 5896 5897 5898 5899 5899 5900 5900 5901 5902 5903 5904 5905 5906 5907 5908 5909 5911 5912 5913 5915 5916 5916 5917 5918 5919 5920 5921 5922 5923 5923 5924 5924 5925 5925 5926
5882 5884 5886 5887 5888 5889 5891 5893 5895 5896 5897 5898 5898 5899 5899 5900 5901 5902 5903 5904 5905 5906 5907 5909 5910 5911 5913 5914 5915 5916 5917 5918 5919 5920 5921 5921 5922 5922 5923 5924 5924 5925
5880 5882 5883 5884 5885 5887 5888 5890 5892 5894 5895 5896 5897 5898 5898 5899 5900 5900 5901 5902 5904 5905 5906 5907 5908 5909 5911 5912 5913 5915 5916 5916 5917 5918 5919 5920 5921 5921 5921 5922 5923 5924
5877 5879 5881 5882 5883 5884 5886 5887 5889 5891 5892 5894 5895 5896 5897 5897 5898 5899 5899 5900 5902 5903 5904 5905 5906 5907 5908 5910 5911 5913 5914 5915 5915 5916 5917 5918 5919 5919 5920 5920 5921 5922
5875 5877 5878 5880 5881 5882 5883 5885 5886 5887 5889 5891 5892 5894 5894 5895 5896 5897 5897 5898 5899 5901 5902 5903 5904 5904 5905 5906 5908 5910 5911 5912 5913 5913 5914 5915 5916 5917 5917 5918 5919 5920
5873 5874 5876 5877 5879 5880 5881 5882 5883 5884 5886 5888 5890 5891 5892 5893 5894 5894 5895 5896 5897 5898 5900 5900 5901 5902 5902 5903 5905 5907 5908 5909 5910 5911 5911 5912 5913 5914 5915 5916 5917 5918
5870 5872 5873 5875 5876 5877 5879 5880 5881 5882 5883 5885 5887 5888 5890 5891 5892 5892 5893 5894 5895 5896 5897 5898 5899 5900 5900 5900 5902 5903 5905 5906 5908 5909 5909 5910 5911 5912 5912 5913 5914 5915
5868 5869 5870 5872 5873 5875 5876 5878 5879 5879 5880 5882 5883 5885 5887 5888 5889 5890 5891 5892 5892 5893 5894 5896 5897 5897 5898 5898 5899 5900 5901 5903 5905 5906 5906 5907 5908 5909 5910 5910 5911 5912
5867 5867 5868 5870 5871 5872 5874 5875 5876 5877 5878 5879 5880 5882 5884 5886 5887 5888 5888 5889 5890 5890 5891 5893 5894 5895 5895 5896 5897 5897 5898 5900 5901 5902 5903 5904 5905 5906 5906 5907 5908 5909
5866 5866 5867 5868 5869 5870 5871 5873 5874 5875 5875 5876 5877 5879 5881 5882 5884 5885 5885 5886 5887 5887 5888 5889 5891 5892 5893 5893 5894 5894 5895 5896 5898 5899 5900 5901 5901 5902 5903 5904 5905 5906
5866 5866 5866 5866 5867 5868 5869 5870 5871 5872 5873 5873 5874 5875 5877 5879 5880 5881 5882 5883 5883 5884 5884 5886 5887 5888 5890 5891 5891 5891 5892 5893 5894 5896 5897 5898 5898 5899 5900 5901 5903 5904
5865 5865 5864 5865 5865 5866 5866 5867 5868 5869 5869 5870 5871 5872 5874 5875 5876 5877 5878 5879 5879 5880 5881 5882 5883 5884 5885 5887 5888 5888 5888 5889 5891 5892 5893 5894 5895 5896 5897 5898 5899 5900
5865 5864 5863 5863 5863 5863 5864 5865 5866 5866 5867 5867 5868 5869 5870 5872 5873 5874 5875 5875 5876 5876 5877 5877 5878 5879 5881 5882 5884 5884 5884 5885 5886 5888 5890 5891 5891 5892 5893 5894 5895 5896
5864 5863 5862 5861 5861 5861 5862 5863 5863 5864 5864 5865 5865 5866 5867 5868 5869 5870 5871 5872 5872 5872 5872 5873 5874 5875 5876 5878 5878 5879 5880 5881 5882 5883 5885 5887 5887 5888 5889 5890 5891 5892
5862 5861 5860 5860 5859 5860 5860 5860 5861 5861 5862 5862 5862 5863 5863 5864 5865 5866 5867 5867 5868 5868 5868 5869 5869 5871 5872 5872 5873 5874 5874 5875 5877 5879 5881 5882 5883 5883 5885 5886 5887 5889
5860 5859 5858 5858 5857 5857 5858 5858 5858 5858 5859 5859 5859 5859 5860 5860 5861 5862 5863 5863 5863 5864 5864 5865 5865 5866 5867 5867 5868 5868 5868 5869 5873 5875 5875 5877 5878 5879 5880 5882 5883 5885
5858 5858 5857 5856 5856 5856 5856 5856 5856 5856 5856 5856 5856 5856 5856 5857 5857 5858 5858 5859 5859 5859 5860 5860 5860 5861 5861 5861 5862 5862 5863 5865 5868 5869 5869 5871 5872 5873 5874 5876 5879 5881
5857 5856 5856 5855 5855 5855 5855 5854 5854 5854 5854 5854 5854 5854 5854 5854 5854 5854 5854 5854 5854 5855 5855 5855 5855 5855 5855 5856 5856 5857 5858 5861 5863 5863 5864 5866 5867 5868 5870 5871 5873 5875
5857 5856 5855 5855 5854 5854 5854 5853 5853 5852 5851 5851 5851 5851 5851 5851 5850 5850 5850 5850 5850 5850 5850 5850 5850 5849 5849 5850 5851 5851 5853 5855 5856 5857 5859 5861 5862 5863 5865 5867 5869 5870
5856 5855 5854 5854 5853 5853 5852 5851 5851 5850 5849 5849 5848 5848 5847 5847 5847 5847 5846 5846 5845 5845 5845 5845 5844 5844 5844 5845 5846 5846 5847 5848 5850 5852 5854 5856 5857 5858 5860 5863 5864 5864
5854 5853 5853 5852 5852 5851 5850 5850 5849 5848 5847 5847 5846 5845 5845 5844 5844 5843 5843 5842 5841 5840 5840 5840 5839 5838 5839 5840 5840 5841 5842 5843 5845 5847 5848 5850 5852 5853 5855 5857 5859 5859
5851 5851 5850 5850 5850 5849 5848 5847 5847 5846 5845 5844 5844 5843 5842 5841 5840 5840 5839 5838 5837 5836 5835 5835 5834 5833 5834 5835 5835 5836 5837 5839 5841 5842 5844 5845 5847 5848 5850 5852 5854 5855
5849 5848 5848 5847 5847 5846 5846 5845 5844 5843 5842 5841 5841 5840 5839 5838 5838 5837 5836 5835 5834 5832 5831 5830 5830 5830 5830 5831 5831 5832 5834 5835 5837 5838 5839 5841 5842 5844 5845 5847 5849 5850
5846 5846 5845 5845 5844 5843 5843 5842 5841 5840 5839 5839 5838 5837 5836 5836 5835 5834 5833 5831 5830 5829 5827 5826 5826 5826 5826 5827 5827 5828 5829 5831 5832 5833 5835 5836 5837 5839 5840 5842 5843 5844
5842 5842 5842 5842 5841 5840 5840 5839 5838 5837 5837 5836 5835 5834 5833 5833 5832 5831 5829 5828 5827 5825 5824 5823 5822 5822 5823 5823 5824 5824 5825 5826 5827 5828 5830 5830 5831 5833 5835 5836 5838 5840